User: anonymous   Login
Location: Castifao
(42.5040°N, 9.1124°E)
Time: 13:00:19
(UTC+00:00)
Language:

Cosmos 1328 - Orbit

View from above orbital plane
View from above orbital plane
View from above satellite
View from above satellite

Ground track
Ground track

The orbit data is extracted from the following two-line orbital elements,

1 12987U 81117A   20099.11737226 -.00000091  00000-0 -78428-5 0  9990
2 12987  82.5179 321.9348 0004659 332.6687  27.4295 15.08066075 87080
Epoch (UTC): 08 April 2020 02:49:00
Eccentricity: 0.0004659
inclination: 82.5179°
perigee height: 539 km
apogee height: 545 km
right ascension of ascending node: 321.9348°
argument of perigee: 332.6687°
revolutions per day: 15.08066075
mean anomaly at epoch: 27.4295°
orbit number at epoch: 8708

The dashed part of the orbit path shows where the satellite is in the earth's shadow,  

DLR